When you browse on this site, cookies collect data to enhance your experience and personalize the content and advertising you see.
Visit our Privacy Policy to learn more. By continuing to use the site, you agree to this use of cookies and data.
  • In Netherlands
  • List of Countries
  • For 7 days
  • Water Temperature
  • Weather Map
  • Weather Widgets
  • user-avatar
    Login

    Hourly Weather Rixensart

    Today, 4 April, Saturday

    Time Temperature Precipitation Wind Pressure Humidity
    00:00 +3°C° 0 mm 2 mps 757 mmHg 74%
    01:00 +3°C° 0 mm 2 mps 757 mmHg 73%
    02:00 +4°C° 0 mm 2 mps 757 mmHg 72%
    03:00 +4°C° 0 mm 2 mps 757 mmHg 72%
    04:00 +4°C° 0 mm 2 mps 758 mmHg 73%
    05:00 +4°C° 0 mm 2 mps 758 mmHg 74%
    06:00 +4°C° 0 mm 2 mps 758 mmHg 73%
    07:00 +6°C° 0 mm 2 mps 758 mmHg 68%
    08:00 +8°C° 0 mm 3 mps 758 mmHg 63%
    09:00 +10°C° 0 mm 3 mps 759 mmHg 57%
    10:00 +11°C° 0 mm 3 mps 758 mmHg 55%
    11:00 +12°C° 0 mm 3 mps 758 mmHg 53%
    12:00 +13°C° 0 mm 3 mps 758 mmHg 51%
    13:00 +14°C° 0 mm 2 mps 758 mmHg 51%
    14:00 +14°C° 0 mm 2 mps 758 mmHg 50%
    15:00 +15°C° 0 mm 1 mps 757 mmHg 50%
    16:00 +13°C° 0 mm 1 mps 757 mmHg 55%
    17:00 +12°C° 0 mm 1 mps 757 mmHg 59%
    18:00 +10°C° 0 mm 2 mps 757 mmHg 64%
    19:00 +9°C° 0 mm 2 mps 757 mmHg 66%
    20:00 +8°C° 0 mm 2 mps 758 mmHg 69%
    21:00 +7°C° 0 mm 3 mps 758 mmHg 71%
    22:00 +7°C° 0 mm 3 mps 758 mmHg 72%
    23:00 +5°C° 0 mm 3 mps 758 mmHg 73%

    Tomorrow, 5 April, Sunday

    Time Temperature Precipitation Wind Pressure Humidity
    00:00 +5°C° 0 mm 3 mps 758 mmHg 74%
    01:00 +5°C° 0 mm 3 mps 758 mmHg 75%
    02:00 +4°C° 0 mm 3 mps 757 mmHg 76%
    03:00 +4°C° 0 mm 3 mps 757 mmHg 77%
    04:00 +4°C° 0 mm 4 mps 757 mmHg 77%
    05:00 +5°C° 0 mm 4 mps 757 mmHg 77%
    06:00 +5°C° 0 mm 4 mps 756 mmHg 77%
    07:00 +8°C° 0 mm 5 mps 756 mmHg 71%
    08:00 +10°C° 0 mm 5 mps 756 mmHg 64%
    09:00 +14°C° 0 mm 6 mps 756 mmHg 58%
    10:00 +15°C° 0 mm 6 mps 756 mmHg 54%
    11:00 +17°C° 0 mm 6 mps 756 mmHg 51%
    12:00 +19°C° 0 mm 6 mps 755 mmHg 48%
    13:00 +19°C° 0 mm 5 mps 755 mmHg 48%
    14:00 +19°C° 0 mm 5 mps 754 mmHg 49%
    15:00 +20°C° 0 mm 5 mps 754 mmHg 49%
    16:00 +17°C° 0 mm 5 mps 754 mmHg 55%
    17:00 +15°C° 0 mm 4 mps 754 mmHg 61%
    18:00 +14°C° 0 mm 3 mps 754 mmHg 67%
    19:00 +13°C° 0 mm 4 mps 754 mmHg 69%
    20:00 +12°C° 0 mm 4 mps 754 mmHg 72%
    21:00 +11°C° 0 mm 4 mps 754 mmHg 74%
    22:00 +11°C° 0 mm 4 mps 754 mmHg 75%
    23:00 +11°C° 0 mm 4 mps 754 mmHg 75%

    Day after tomorrow, 6 April, Monday

    Time Temperature Precipitation Wind Pressure Humidity
    00:00 +10°C° 0 mm 4 mps 754 mmHg 75%
    01:00 +10°C° 0 mm 4 mps 754 mmHg 76%
    02:00 +10°C° 0 mm 4 mps 754 mmHg 76%
    03:00 +8°C° 0 mm 4 mps 754 mmHg 77%
    04:00 +8°C° 0 mm 4 mps 754 mmHg 77%
    05:00 +8°C° 0 mm 5 mps 754 mmHg 76%
    06:00 +8°C° 0 mm 5 mps 754 mmHg 76%
    07:00 +9°C° 0 mm 5 mps 755 mmHg 69%
    08:00 +11°C° 0 mm 6 mps 755 mmHg 62%
    09:00 +14°C° 0 mm 6 mps 755 mmHg 55%
    10:00 +15°C° 0 mm 6 mps 756 mmHg 53%
    11:00 +16°C° 0 mm 6 mps 756 mmHg 50%
    12:00 +17°C° 0 mm 6 mps 756 mmHg 48%
    13:00 +19°C° 0 mm 6 mps 756 mmHg 48%
    14:00 +19°C° 0 mm 5 mps 756 mmHg 48%
    15:00 +19°C° 0 mm 5 mps 757 mmHg 48%
    16:00 +18°C° 0 mm 4 mps 757 mmHg 55%
    17:00 +16°C° 0 mm 3 mps 758 mmHg 61%
    18:00 +14°C° 0 mm 3 mps 758 mmHg 68%
    19:00 +14°C° 0 mm 2 mps 759 mmHg 73%
    20:00 +13°C° 0 mm 2 mps 759 mmHg 79%
    21:00 +12°C° 0 mm 2 mps 760 mmHg 84%
    22:00 +10°C° 0 mm 2 mps 760 mmHg 86%
    23:00 +11°C° 0 mm 1 mps 761 mmHg 88%

    7 April, Tuesday

    Time Temperature Precipitation Wind Pressure Humidity
    00:00 +11°C° 0 mm 1 mps 761 mmHg 90%
    01:00 +11°C° 0 mm 1 mps 761 mmHg 91%
    02:00 +11°C° 0 mm 1 mps 762 mmHg 91%
    03:00 +11°C° 0 mm 1 mps 762 mmHg 91%
    04:00 +11°C° 0 mm 1 mps 762 mmHg 91%
    05:00 +11°C° 0 mm 1 mps 762 mmHg 91%
    06:00 +11°C° 0 mm 1 mps 763 mmHg 90%
    07:00 +12°C° 0 mm 1 mps 763 mmHg 86%
    08:00 +13°C° 0 mm 1 mps 763 mmHg 81%
    09:00 +14°C° 0 mm 2 mps 763 mmHg 77%
    10:00 +15°C° 0 mm 2 mps 763 mmHg 74%
    11:00 +15°C° 0 mm 2 mps 763 mmHg 71%
    12:00 +16°C° 0 mm 2 mps 763 mmHg 69%
    13:00 +17°C° 0 mm 2 mps 763 mmHg 67%
    14:00 +17°C° 0 mm 2 mps 763 mmHg 65%
    15:00 +18°C° 0 mm 2 mps 763 mmHg 63%
    16:00 +17°C° 0 mm 2 mps 763 mmHg 68%
    17:00 +16°C° 0 mm 2 mps 763 mmHg 72%
    18:00 +15°C° 0 mm 2 mps 763 mmHg 76%
    19:00 +14°C° 0 mm 2 mps 763 mmHg 79%
    20:00 +13°C° 0 mm 2 mps 763 mmHg 82%
    21:00 +12°C° 0 mm 2 mps 763 mmHg 85%
    22:00 +12°C° 0 mm 1 mps 763 mmHg 86%
    23:00 +11°C° 0 mm 1 mps 763 mmHg 87%

    8 April, Wednesday

    Time Temperature Precipitation Wind Pressure Humidity
    00:00 +11°C° 0 mm 1 mps 763 mmHg 88%
    01:00 +11°C° 0 mm 1 mps 763 mmHg 88%
    02:00 +10°C° 0 mm 1 mps 763 mmHg 88%
    03:00 +9°C° 0 mm 0 mps 763 mmHg 88%
    04:00 +9°C° 0 mm 0 mps 763 mmHg 87%
    05:00 +9°C° 0 mm 0 mps 763 mmHg 87%
    06:00 +10°C° 0 mm 0 mps 763 mmHg 87%
    07:00 +12°C° 0 mm 0 mps 763 mmHg 80%
    08:00 +15°C° 0 mm 1 mps 763 mmHg 73%
    09:00 +18°C° 0 mm 1 mps 763 mmHg 65%
    10:00 +19°C° 0 mm 1 mps 763 mmHg 61%
    11:00 +20°C° 0 mm 1 mps 762 mmHg 56%
    12:00 +21°C° 0 mm 1 mps 762 mmHg 52%
    13:00 +22°C° 0 mm 1 mps 762 mmHg 50%
    14:00 +22°C° 0 mm 1 mps 762 mmHg 48%
    15:00 +21°C° 0 mm 2 mps 762 mmHg 46%
    16:00 +20°C° 0 mm 2 mps 762 mmHg 53%
    17:00 +18°C° 0 mm 2 mps 761 mmHg 60%
    18:00 +17°C° 0 mm 3 mps 761 mmHg 67%
    19:00 +14°C° 0 mm 3 mps 762 mmHg 72%
    20:00 +13°C° 0 mm 3 mps 762 mmHg 78%
    21:00 +12°C° 0 mm 3 mps 762 mmHg 83%
    22:00 +11°C° 0 mm 3 mps 762 mmHg 86%
    23:00 +12°C° 0 mm 2 mps 762 mmHg 88%

    9 April, Thursday

    Time Temperature Precipitation Wind Pressure Humidity
    00:00 +10°C° 0 mm 2 mps 762 mmHg 91%
    01:00 +10°C° 0 mm 2 mps 762 mmHg 92%
    02:00 +10°C° 0 mm 2 mps 762 mmHg 93%
    03:00 +10°C° 0 mm 1 mps 762 mmHg 94%
    04:00 +9°C° 0 mm 2 mps 762 mmHg 94%
    05:00 +9°C° 0 mm 2 mps 762 mmHg 95%
    06:00 +10°C° 0 mm 2 mps 762 mmHg 95%
    07:00 +13°C° 0 mm 2 mps 762 mmHg 88%
    08:00 +14°C° 0 mm 2 mps 762 mmHg 80%
    09:00 +16°C° 0 mm 2 mps 762 mmHg 73%
    10:00 +18°C° 0 mm 2 mps 762 mmHg 66%
    11:00 +19°C° 0 mm 2 mps 761 mmHg 59%
    12:00 +20°C° 0 mm 2 mps 761 mmHg 51%
    13:00 +20°C° 0 mm 2 mps 761 mmHg 52%
    14:00 +20°C° 0 mm 2 mps 761 mmHg 52%
    15:00 +20°C° 0 mm 2 mps 760 mmHg 53%
    16:00 +19°C° 0 mm 2 mps 760 mmHg 56%
    17:00 +18°C° 0 mm 2 mps 760 mmHg 60%
    18:00 +17°C° 0 mm 2 mps 760 mmHg 63%
    19:00 +16°C° 0 mm 2 mps 760 mmHg 65%
    20:00 +14°C° 0 mm 3 mps 760 mmHg 66%
    21:00 +13°C° 0 mm 3 mps 760 mmHg 68%
    22:00 +13°C° 0 mm 3 mps 760 mmHg 73%
    23:00 +12°C° 0 mm 3 mps 760 mmHg 78%
    Show more